{"data":{"norad_id":61249,"epoch":"2026-09-21T01:05:28.371264Z","epoch_age_seconds":144857,"freshness":"FRESH","line1":"1 61249U 24175G   26264.04546726  .00000232  00000+0  67733-5 0  9992","line2":"2 61249  53.1599 172.9125 0000924  96.7565 263.3558 15.69707352114054","mean_motion":15.69707352,"eccentricity":9.24e-5,"inclination_deg":53.1599,"raan_deg":172.9125,"arg_perigee_deg":96.7565,"mean_anomaly_deg":263.3558,"bstar":6.7733e-6,"rev_number":11405,"period_min":91.736844970832,"perigee_km":359.11174868213,"apogee_km":360.35690730354,"semimajor_km":6737.8713279928,"source":"CELESTRAK","updated_at":"2026-09-22T09:00:49.348746Z"}}